Location: Tierra del Sol
(32.6128°N, 116.3319°W)
Time: 08:58:08
(UTC-08:00)

Vanguard 2 Rocket - All Passes

Search period start: 16 December 2017 00:00
Search period end: 26 December 2017 00:00
Orbit: 556 x 3326 km, 32.9° (Epoch: 15 December)

Date Brightness Start Highest point End Pass type
(mag) Time Alt. Az. Time Alt. Az. Time Alt. Az.
16 Dec - 01:49:28 10° W 02:06:03 33° SW 02:20:20 10° SSE visible
16 Dec - 15:50:43 10° SSW 15:57:17 29° SE 16:07:33 10° E daylight
16 Dec - 18:01:11 10° WSW 18:10:57 74° SSE 18:28:10 10° ENE visible
16 Dec - 20:14:34 10° W 20:28:06 89° N 20:48:31 10° E visible
16 Dec - 22:29:39 10° WNW 22:46:57 77° SSW 23:07:09 10° ESE visible
17 Dec - 00:46:55 10° W 01:04:51 44° SW 01:21:30 10° SSE visible
17 Dec - 03:12:18 10° WSW 03:20:17 14° SW 03:27:33 10° SSW visible
17 Dec - 14:54:07 10° SSE 14:58:21 16° SE 15:03:52 10° E daylight
17 Dec - 17:02:29 10° SW 17:10:43 60° SSE 17:25:24 10° ENE visible
17 Dec - 19:14:58 10° W 19:26:33 90° SE 19:45:46 10° E visible
17 Dec - 21:29:17 10° W 21:44:48 84° SSW 22:05:32 10° ESE visible
17 Dec - 23:45:18 10° WNW 00:03:13 55° SSW 00:21:46 10° SE visible
18 Dec - 02:05:56 10° W 02:19:39 23° SW 02:32:01 10° S visible
18 Dec - 16:04:14 10° SSW 16:11:05 42° SE 16:22:45 10° E daylight
18 Dec - 18:15:44 10° WSW 18:25:31 84° SSE 18:42:53 10° E visible
18 Dec - 20:29:20 10° W 20:42:52 89° S 21:03:15 10° E visible
18 Dec - 22:44:23 10° WNW 23:01:19 66° SSW 23:21:11 10° SE visible
19 Dec - 01:02:28 10° W 01:18:37 33° SW 01:34:03 10° SSE visible
19 Dec - 15:06:37 10° SSW 15:11:59 26° SE 15:20:05 10° E daylight
19 Dec - 17:16:50 10° WSW 17:25:03 74° SSE 17:40:07 10° ENE visible
19 Dec - 19:29:44 10° W 19:41:19 89° N 20:00:33 10° E visible
19 Dec - 21:44:00 10° WNW 21:59:22 75° SSW 22:19:51 10° ESE visible
20 Dec - 00:00:23 10° W 00:17:13 43° SW 00:34:52 10° SSE visible
20 Dec - 02:24:55 10° WSW 02:33:21 14° SW 02:41:22 10° SSW visible
20 Dec - 14:10:26 10° SSE 14:13:13 13° SE 14:16:35 10° ESE daylight
20 Dec - 16:18:18 10° SW 16:25:11 58° SSE 16:37:35 10° ENE daylight
20 Dec - 18:30:26 10° W 18:40:14 90° N 18:57:39 10° E visible
20 Dec - 20:44:04 10° W 20:57:33 83° SSW 21:17:50 10° ESE visible
20 Dec - 22:59:14 10° W 23:15:33 54° SSW 23:34:45 10° SE visible
21 Dec - 01:19:02 10° W 01:32:24 23° SW 01:45:29 10° S visible
21 Dec - 15:20:09 10° SSW 15:25:51 39° SE 15:35:20 10° E daylight
21 Dec - 17:31:25 10° WSW 17:39:39 85° S 17:54:49 10° E visible
21 Dec - 19:44:29 10° W 19:56:04 88° S 20:15:17 10° ESE visible
21 Dec - 21:58:46 10° WNW 22:13:47 63° SSW 22:33:48 10° SE visible
22 Dec - 00:16:01 10° W 00:31:09 32° SW 00:47:13 10° SSE visible
22 Dec - 14:22:38 10° S 14:26:57 23° SE 14:33:08 10° E daylight
22 Dec - 16:32:41 10° WSW 16:39:35 74° SSE 16:52:19 10° E daylight
22 Dec - 18:45:11 10° W 18:55:00 89° N 19:12:26 10° E visible
22 Dec - 20:58:47 10° W 21:12:08 73° SSW 21:32:07 10° ESE visible
22 Dec - 23:14:24 10° W 23:29:41 41° SW 23:47:41 10° SSE visible
23 Dec - 01:38:18 10° WSW 01:46:20 14° SW 01:54:22 10° SSW visible
23 Dec - 13:27:18 10° SE 13:28:17 10° SE 13:29:20 10° ESE daylight
23 Dec - 15:34:14 10° SW 15:40:02 56° SSE 15:50:12 10° E daylight
23 Dec - 17:46:08 10° W 17:54:23 89° N 18:09:35 10° E visible
23 Dec - 19:59:12 10° W 20:10:45 81° SSW 20:29:49 10° ESE visible
23 Dec - 22:13:40 10° W 22:28:07 51° SSW 22:47:13 10° SE visible
24 Dec - 00:32:46 10° W 00:45:10 22° SW 00:58:19 10° S visible
24 Dec - 14:36:09 10° SSW 14:40:56 36° SE 14:48:27 10° E daylight
24 Dec - 16:47:18 10° WSW 16:54:12 86° S 17:07:02 10° E daylight
24 Dec - 18:59:55 10° W 19:09:44 87° S 19:27:09 10° ESE visible
24 Dec - 21:13:34 10° W 21:26:37 60° SSW 21:45:57 10° SE visible
24 Dec - 23:30:08 10° W 23:43:50 30° SW 23:59:46 10° SSE visible
25 Dec - 13:38:39 10° S 13:42:09 20° SE 13:46:45 10° E daylight
25 Dec - 15:48:40 10° WSW 15:54:30 73° SSE 16:04:56 10° E daylight
25 Dec - 18:00:53 10° W 18:09:09 89° N 18:24:22 10° E visible
25 Dec - 20:13:56 10° W 20:25:21 70° SSW 20:44:02 10° ESE visible
25 Dec - 22:28:54 10° W 22:42:25 39° SSW 22:59:57 10° SSE visible
